Theta_e
306 306 307 307 307 308 308 306 305 306 306 306 306 306 306 307 306 306 307 308 308 309 310 310 311 311 311 310 310 309 307 306 305 304 302 301 300 300 299 299 299 298
303 304 304 304 304 303 304 305 305 305 305 305 305 306 305 303 303 303 304 304 305 306 307 308 309 309 310 309 309 308 308 306 305 305 303 301 301 300 300 300 299 299
301 301 302 303 304 304 303 303 304 303 304 304 303 302 303 301 302 301 302 303 303 304 304 305 306 307 307 308 309 308 307 306 305 304 303 302 301 300 300 300 300 299
300 301 302 302 303 303 303 302 301 301 300 301 301 301 301 301 301 300 300 299 302 302 303 303 304 305 305 306 306 306 307 307 307 305 303 303 302 301 300 300 300 300
299 299 300 301 301 301 301 300 300 300 300 301 301 299 299 299 299 299 299 299 300 300 301 301 302 302 303 304 304 304 305 304 304 304 303 303 303 302 302 301 299 298
297 298 299 299 300 300 300 300 300 300 300 299 300 300 299 299 298 298 298 298 298 299 299 300 300 301 302 302 303 303 304 303 303 302 302 301 300 300 301 299 298 297
297 297 297 297 297 298 298 299 299 299 299 300 298 298 297 297 297 297 298 298 298 297 298 298 299 299 300 301 301 301 302 302 301 301 300 299 298 297 297 298 297 297
295 295 295 295 295 296 296 297 297 297 297 295 297 298 296 297 297 297 297 297 297 298 297 297 298 299 299 299 300 299 298 300 300 298 298 298 297 297 297 297 296 296
292 292 292 292 293 294 293 294 294 294 294 295 296 295 294 296 296 296 295 295 296 296 297 296 297 297 297 297 297 297 297 297 298 297 296 296 296 297 297 296 295 295
291 291 291 291 291 292 292 292 292 292 292 292 293 294 294 293 294 295 294 294 294 294 294 295 295 295 295 295 296 296 296 296 296 296 296 296 296 296 296 295 295 294
290 290 290 290 291 291 291 291 291 291 291 291 292 292 293 293 292 292 293 293 294 294 294 294 294 294 294 295 295 295 295 295 296 296 296 296 296 296 294 295 295 295
290 289 290 290 290 290 290 290 291 290 290 290 291 292 292 292 292 292 292 292 293 294 294 294 294 294 294 295 295 294 294 294 295 295 295 295 295 295 295 295 295 295
289 289 289 289 290 290 290 290 289 289 289 290 290 290 291 291 291 291 291 291 293 293 293 293 293 293 293 294 294 294 293 293 293 293 293 294 295 295 295 295 295 295
289 288 289 289 289 289 289 289 289 289 289 289 289 289 290 290 291 291 291 291 292 292 292 292 292 293 293 293 293 293 293 293 293 293 293 293 293 294 294 294 294 294
288 288 288 288 288 288 288 288 288 288 288 288 288 289 289 290 290 290 290 291 291 291 291 291 291 292 293 293 293 293 293 293 293 293 293 293 293 293 293 293 293 294
288 287 288 287 288 288 288 288 288 288 288 287 288 288 288 289 289 289 289 290 290 291 291 291 291 292 290 291 292 293 293 293 293 293 292 293 293 293 293 292 293 293
288 288 287 288 288 287 288 287 287 287 287 287 287 287 287 288 288 288 288 289 289 290 290 291 291 291 290 292 293 294 293 293 292 292 292 292 292 293 293 293 292 292
287 287 287 287 287 287 287 286 286 285 286 286 286 286 287 287 287 287 288 288 289 289 289 290 291 290 292 292 293 293 293 293 293 292 292 292 292 292 292 292 292 292
287 287 287 287 287 286 286 285 285 285 285 286 286 287 285 286 287 287 287 288 288 288 289 289 290 290 292 292 293 293 293 293 293 292 291 291 292 292 291 291 291 291
286 286 286 286 286 285 285 285 285 286 286 286 286 285 285 286 286 286 287 287 287 288 288 289 289 289 291 292 292 292 293 293 292 291 290 291 291 291 291 291 291 290
286 286 285 286 286 285 285 285 285 285 285 286 286 286 286 286 287 287 287 286 286 287 287 288 289 289 291 291 292 292 293 293 292 291 290 290 291 290 291 291 291 291
285 285 285 285 285 284 284 285 285 285 285 286 285 286 286 285 285 285 285 286 286 286 286 286 287 289 290 291 291 292 292 290 290 289 289 289 289 289 289 290 290 291
284 284 284 284 284 284 284 285 285 285 285 284 284 286 286 286 285 286 286 286 285 285 285 286 287 288 289 290 291 291 291 289 288 288 288 288 288 288 289 289 289 289
284 283 283 282 282 282 283 283 284 284 284 284 284 285 285 285 285 285 285 285 285 285 285 285 286 287 288 289 290 291 290 288 288 288 287 288 288 288 288 288 288 287
283 282 282 281 281 282 282 282 283 283 284 282 283 283 283 284 284 284 284 284 284 284 284 284 285 285 287 288 289 290 289 288 288 288 287 287 287 287 288 288 288 287
282 281 281 280 281 281 281 281 282 281 282 282 282 282 283 283 282 282 282 283 283 283 283 283 283 284 285 287 288 289 289 288 288 287 286 286 287 287 287 287 287 287
Wind_Speed
6 6 7 7 7 7 7 7 7 8 8 7 7 8 8 8 6 8 8 8 8 7 7 7 6 6 5 6 7 8 9 11 11 11 11 12 13 14 14 15 14 12
7 7 6 6 6 6 6 7 8 8 8 7 7 7 6 5 6 7 8 8 8 9 9 9 8 8 8 6 6 7 7 8 11 8 10 14 13 13 15 15 15 13
6 7 7 9 8 9 9 7 7 6 6 7 6 5 7 7 7 7 7 7 8 7 8 8 9 9 9 9 8 8 7 7 9 7 10 13 11 12 13 13 12 14
7 7 8 8 7 8 7 6 6 5 5 5 8 7 7 6 7 7 7 7 7 8 7 7 8 8 8 8 8 8 8 8 9 7 9 10 11 11 12 11 12 12
7 6 7 7 6 6 5 6 7 7 8 8 6 6 6 6 7 7 7 7 8 8 7 8 8 8 8 8 8 8 8 8 7 7 9 11 11 11 12 12 13 14
6 5 5 6 7 6 6 7 8 7 8 7 9 7 7 8 8 8 8 8 8 8 8 8 8 8 8 9 9 9 9 9 9 9 9 10 9 8 9 10 11 12
6 5 6 6 7 7 7 8 7 7 7 8 5 7 7 8 8 9 9 9 8 8 8 9 8 9 9 9 10 10 9 10 10 10 11 9 8 9 10 10 11 12
5 4 5 5 7 7 8 7 7 7 7 5 8 7 7 9 8 8 8 8 9 9 9 9 9 9 9 9 10 10 9 8 9 9 11 11 9 11 10 10 10 11
4 5 5 6 7 7 6 7 7 6 6 7 7 6 7 7 8 8 7 7 8 9 9 10 10 10 9 9 10 10 10 10 10 9 10 11 11 12 11 10 11 12
6 5 5 6 7 7 7 7 7 7 7 7 7 6 7 7 7 6 6 7 8 8 9 9 9 9 9 10 11 10 10 11 10 10 10 10 11 10 9 9 11 11
6 5 6 7 7 7 8 7 7 7 7 8 7 7 7 6 6 5 6 7 8 9 9 9 9 9 10 10 10 10 10 10 10 10 10 10 10 10 9 10 10 12
6 6 6 7 7 7 8 8 7 7 8 8 6 7 6 6 6 6 7 8 9 10 9 9 8 9 10 11 10 9 9 10 9 9 9 9 10 9 9 9 10 11
6 6 6 7 7 7 7 6 7 7 8 8 6 6 6 7 6 7 7 8 9 9 9 9 8 8 9 10 9 9 9 10 10 9 9 9 9 10 9 9 10 10
5 6 6 6 6 6 6 7 7 7 7 6 5 6 7 7 7 7 8 7 8 8 8 7 8 8 9 9 9 9 9 10 10 10 11 10 10 9 9 9 10 10
5 5 5 5 5 5 6 7 6 6 5 5 5 6 6 6 7 7 7 8 8 8 8 7 8 9 9 10 10 11 10 11 11 11 11 11 10 9 9 10 10 10
4 4 4 4 4 5 5 5 5 5 5 5 5 5 6 6 6 7 7 8 8 8 8 7 8 8 10 15 13 10 9 9 9 10 10 10 11 11 10 10 11 10
5 6 6 6 6 6 6 6 6 5 5 5 5 6 6 6 6 7 7 8 8 8 9 8 8 8 14 15 15 17 12 10 10 10 10 11 11 12 12 11 11 11
7 7 7 7 6 7 7 5 5 4 4 4 5 6 5 5 6 7 7 7 7 8 9 9 9 10 14 14 15 16 15 11 10 10 10 10 11 11 11 10 11 10
8 8 8 8 8 8 6 6 5 5 4 4 5 5 4 6 6 7 8 7 7 9 9 9 10 10 13 14 15 16 16 14 10 10 10 11 11 11 11 11 10 10
8 7 8 8 7 6 7 6 6 6 5 5 5 5 4 5 5 6 6 7 8 9 9 9 10 8 12 14 15 15 16 14 11 11 10 11 12 12 11 12 11 11
8 8 8 7 7 6 6 6 6 6 6 5 4 5 5 6 6 6 6 6 6 7 7 10 8 9 11 14 15 16 16 14 10 10 9 10 11 11 13 12 11 11
7 8 7 7 7 6 6 7 6 5 7 6 5 5 4 5 6 5 8 8 7 7 8 10 8 9 12 13 15 14 16 10 8 9 10 10 11 11 11 10 10 11
7 8 7 7 7 7 7 8 8 8 7 4 6 6 6 6 6 6 6 7 8 7 8 10 10 8 11 13 14 15 12 8 8 8 9 11 12 11 10 10 10 9
8 8 8 8 7 7 8 7 6 5 5 5 6 8 8 7 7 7 7 6 8 9 8 10 12 8 10 12 13 14 12 9 8 8 10 11 11 10 9 9 10 14
7 6 7 7 7 7 7 8 7 7 7 5 5 5 7 6 6 7 8 7 7 9 10 11 12 11 10 13 14 14 12 8 8 9 11 11 10 11 9 9 9 10
5 6 6 6 8 8 7 7 6 6 6 6 6 5 6 6 6 6 9 9 6 7 8 8 10 11 8 13 14 15 16 10 7 9 12 12 10 11 11 9 8 9
Wind_Direction
226 214 219 218 219 217 216 211 210 213 211 208 209 212 209 218 209 215 223 226 228 229 224 221 212 214 205 204 205 207 210 213 216 214 211 212 219 217 221 221 218 220
231 227 228 228 231 221 225 216 217 211 218 209 216 216 218 211 212 197 207 215 220 226 228 228 225 222 218 212 206 216 222 218 224 210 212 214 221 218 225 222 221 220
237 227 224 222 224 223 221 218 218 217 217 221 218 213 216 202 210 202 208 210 210 213 216 220 223 223 223 224 222 227 230 227 230 210 215 221 219 219 223 222 225 222
239 236 234 236 235 236 229 219 218 213 221 224 216 216 208 206 199 203 204 209 211 213 210 208 207 212 216 216 216 226 231 238 236 211 216 222 222 221 223 220 225 226
234 243 246 251 248 248 240 227 224 211 208 221 226 211 208 203 202 210 208 211 211 219 214 216 218 221 216 217 214 226 230 243 240 224 221 222 219 214 220 216 221 225
246 236 246 248 248 242 239 236 236 224 219 215 219 204 207 207 210 207 205 210 210 218 221 223 223 221 215 219 216 222 228 232 233 228 230 228 224 216 220 218 221 225
246 239 248 244 253 241 237 241 240 231 224 223 215 222 208 218 216 212 208 209 210 215 220 221 221 223 218 220 224 226 224 225 223 221 229 232 220 222 219 217 219 223
262 263 256 255 250 253 248 248 248 245 242 223 220 225 205 223 225 223 218 212 212 214 216 222 225 225 221 220 227 230 229 223 224 220 225 229 218 227 220 219 219 223
313 278 256 250 252 257 255 255 252 252 249 235 230 231 226 227 229 227 223 223 227 226 219 216 217 221 220 221 228 229 228 226 224 221 224 227 227 228 224 216 219 222
303 282 270 263 260 259 259 257 253 251 246 245 238 231 234 235 233 234 224 225 234 235 231 228 222 219 221 222 228 227 230 229 224 224 225 228 230 232 228 221 223 226
296 292 282 276 267 271 268 269 261 255 247 245 242 238 237 241 241 230 236 232 232 235 235 233 231 226 228 231 230 228 231 234 231 228 228 230 232 233 229 226 226 227
307 306 288 277 274 273 268 266 263 254 251 249 238 247 251 245 241 231 226 235 236 240 238 240 234 230 233 238 237 231 232 236 239 238 235 234 235 235 232 229 232 233
296 282 273 269 265 263 267 264 255 250 243 246 235 237 247 247 237 236 235 235 241 243 241 239 238 233 238 242 243 239 235 234 235 237 239 237 236 235 233 234 235 237
280 272 266 263 262 259 257 256 251 242 239 246 236 237 239 243 245 240 243 237 246 246 247 240 239 238 238 240 239 236 235 235 234 235 236 236 235 234 235 237 237 237
285 276 267 275 276 270 262 253 249 254 258 251 244 247 245 245 245 244 249 249 246 242 245 237 236 238 236 235 237 237 232 237 234 236 237 240 238 235 234 236 238 238
297 300 302 288 290 293 294 298 294 290 281 275 265 258 257 252 251 248 247 251 254 253 244 238 239 239 238 238 236 239 239 240 241 241 239 241 242 243 239 235 238 240
347 347 339 341 332 323 321 323 318 310 305 290 282 272 265 264 257 258 254 252 251 255 255 246 243 240 240 242 243 241 240 242 241 243 237 240 243 245 248 242 239 237
352 345 349 342 339 336 332 326 322 323 313 300 295 288 276 268 263 257 261 260 257 254 255 255 255 250 248 248 246 246 242 243 243 246 244 243 243 246 249 247 245 243
353 353 349 348 347 339 333 330 329 323 313 306 294 283 291 276 269 270 265 263 258 261 261 257 258 255 255 254 252 251 248 245 248 242 245 245 244 245 246 246 244 245
352 350 348 342 337 337 337 335 334 324 312 299 294 298 286 280 275 269 268 265 260 262 266 266 263 264 258 258 259 257 254 250 250 247 246 246 246 245 246 245 242 243
350 346 340 337 335 336 333 330 324 315 314 308 299 295 296 290 291 290 277 269 267 262 268 270 266 262 259 261 262 261 260 256 255 253 252 252 248 245 245 245 245 242
342 335 332 333 334 335 335 331 330 319 315 316 307 295 279 277 280 266 278 280 274 272 274 275 271 256 260 261 262 262 262 260 258 255 255 254 252 247 245 244 243 241
343 336 333 334 335 335 334 332 330 327 320 316 309 300 300 295 285 279 277 280 281 274 272 277 278 265 261 260 260 262 264 261 257 257 256 255 255 251 247 244 238 234
341 339 332 329 330 328 322 315 310 300 296 308 304 306 302 292 293 292 279 269 274 273 262 273 279 271 263 263 260 259 256 258 256 258 259 256 261 256 250 248 238 229
333 330 324 320 319 314 313 311 309 306 301 300 286 283 280 288 288 286 285 272 258 265 266 263 273 277 262 261 260 259 257 256 257 257 260 259 259 262 252 245 245 231
321 318 309 309 307 303 302 297 297 302 300 299 292 277 286 289 282 280 284 283 271 265 267 255 268 274 260 254 255 254 253 254 254 255 258 262 259 260 266 254 240 241